{"data":{"norad_id":68890,"epoch":"2026-05-24T23:50:43.610784Z","epoch_age_seconds":68927,"freshness":"FRESH","line1":"1 68890U 26095AC  26144.99356031  .00026570  00000+0  69186-3 0  9998","line2":"2 68890  51.8834 354.3449 0001878 165.4705 194.6336 15.38694248  4169","mean_motion":15.38694248,"eccentricity":0.0001878,"inclination_deg":51.8834,"raan_deg":354.3449,"arg_perigee_deg":165.4705,"mean_anomaly_deg":194.6336,"bstar":0.00069186,"rev_number":416,"period_min":93.585844092919,"perigee_km":448.68720484029,"apogee_km":451.25184165042,"semimajor_km":6828.1065232454,"source":"CELESTRAK","updated_at":"2026-05-25T13:38:08.651170Z"}}